Back to Previous

Regional Weather Roundup

998 
ASUS44 KLZK 011305
RWRLZK

WEATHER ROUNDUP FOR ARKANSAS
NATIONAL WEATHER SERVICE LITTLE ROCK AR
800 AM CDT MON SEP 01 2014

NOTE: "FAIR" INDICATES FEW OR NO CLOUDS BELOW 12,000 FEET WITH NO
SIGNIFICANT WEATHER AND/OR OBSTRUCTIONS TO VISIBILITY.

ARZ001-003-010-029-011400-
NORTHWEST ARKANSAS
  
CITY           SKY/WX    TMP DP  RH WIND       PRES   REMARKS
FAYETTEVILLE   CLOUDY    67  65  93 E8        30.04R                  
FORT SMITH     MOSUNNY   76  70  82 SE3       29.98R                  
HARRISON       CLOUDY    65  63  93 CALM      30.06S                  
BENTONVILLE    CLOUDY    64  63  94 E12G17    30.03S                  
ROGERS         LGT RAIN  64  62  93 E13       30.04R                  
HIGHFILL       CLOUDY    66  32  28 E9        30.02S                  
SPRINGDALE     CLOUDY    64  63  94 E9        30.05R                  
$$

ARZ004-005-016-011400-
NORTH CENTRAL ARKANSAS
  
CITY           SKY/WX    TMP DP  RH WIND       PRES   REMARKS
BATESVILLE     CLOUDY    75  72  88 S6        30.04R                  
FLIPPIN        PTSUNNY   68  63  83 N6        30.03S                  
MTN HOME       PTSUNNY   68  66  93 NE8G17    30.02F                  
$$

ARZ040-041-011400-
WEST CENTRAL ARKANSAS
  
CITY           SKY/WX    TMP DP  RH WIND       PRES   REMARKS
MENA           CLOUDY    79  72  78 CALM      30.02R                  
MOUNT IDA      CLOUDY    77  71  82 VRB3      30.00R                  
$$

ARZ009-017-025-026-028-011400-
NORTHEAST ARKANSAS
  
CITY           SKY/WX    TMP DP  RH WIND       PRES   REMARKS
CORNING          N/A     75  75 100 S12       30.02S                  
JONESBORO      CLOUDY    77  72  84 SW10      30.05R                  
NEWPORT        CLOUDY    77  73  87 SW3       30.06R                  
WALNUT RIDGE   MOSUNNY   75  68  78 S12       30.02S                  
BLYTHEVILLE    CLOUDY    77  76  96 SW10      30.04R                  
$$

ARZ022-023-033-042-044-011400-
CENTRAL ARKANSAS
  
CITY           SKY/WX    TMP DP  RH WIND       PRES   REMARKS
LITTLE ROCK    CLOUDY    77  71  82 SW7       30.02R                  
N LITTLE ROCK    N/A     77  74  91 SW7G16    30.02R                  
JACKSONVILLE   CLOUDY    78  73  85 SW7       30.03R                  
SEARCY         CLOUDY    75  73  93 CALM      30.05R                  
HOT SPRINGS    CLOUDY    77  72  84 SW8       30.01R                  
RUSSELLVILLE   CLOUDY    77  72  84 CALM      30.01R                  
CLINTON        FAIR      75  73  94 SE5       30.02F FOG              
$$

ARZ036-011400-
EAST ARKANSAS
  
CITY           SKY/WX    TMP DP  RH WIND       PRES   REMARKS
WEST MEMPHIS   CLOUDY    77  77 100 S8        30.04R                  
$$

ARZ050-053-066-070-073-011400-
SOUTHWEST ARKANSAS
  
CITY           SKY/WX    TMP DP  RH WIND       PRES   REMARKS
ARKADELPHIA    CLOUDY    75  75 100 S6        30.00R FOG              
CAMDEN         CLOUDY    75  72  88 SW7       30.01R FOG              
TEXARKANA      CLOUDY    77  74  90 S8        29.98R                  
EL DORADO      CLOUDY    74  74 100 S5        30.02R FOG              
DE QUEEN       CLOUDY    77  73  87 S7        29.95R                  
$$

ARZ056-057-069-011400-
SOUTHEAST ARKANSAS
  
CITY           SKY/WX    TMP DP  RH WIND       PRES   REMARKS
PINE BLUFF     CLOUDY    75  72  90 S10       30.02R                  
STUTTGART      PTSUNNY   75  72  88 S9        30.03R                  
MONTICELLO     CLOUDY    76  73  91 S6        30.03R                  

$$




USA.gov is the U.S. government's official web portal to all federal, state and local government web resources and services.